Regional Weather Roundup
Issued by NWS

Home | Current Version | Previous Version | Graphics & Text | Print | Product List | Glossary On
Versions: 1 2 3 4 5 6 7 8 9 10 11 12 13 14 15 16 17 18 19 20 21 22 23 24 25 26 27 28 29 30 31 32 33 34 35 36 37 38 39 40 41 42 43 44 45 46 47 48 49 50
000
ASUS43 KMPX 011010
RWRMN
WEATHER ROUNDUP FOR MINNESOTA
NATIONAL WEATHER SERVICE TWIN CITIES/CHANHASSEN MN
500 AM CDT MON SEP 01 2014


NOTE: "FAIR" INDICATES FEW OR NO CLOUDS BELOW 12,000 FEET WITH NO
SIGNIFICANT WEATHER AND/OR OBSTRUCTIONS TO VISIBILITY. N/A MEANS
CURRENT SKY AND/OR WEATHER CONDITIONS ARE NOT AVAILABLE.

MNZ060>063-068>070-011100-
   Twin Cities Metro

CITY           SKY/WX    TMP DP  RH WIND       PRES   REMARKS
TWIN CITIES    CLOUDY    66  64  93 SW9       29.64F
ST PAUL        LGT RAIN  65  63  93 SW6       29.64F
CRYSTAL        CLOUDY    67  63  87 SW8       29.62F
BLAINE         CLOUDY    66  66 100 SW6       29.64S
LAKEVILLE      CLOUDY    63  63 100 SW6       29.65S
EDEN PRAIRIE   CLOUDY    65  64  97 SW10      29.64S
SOUTH ST PAUL  LGT RAIN  66  64  92 SW5       29.64F
LAKE ELMO      RAIN      64  63  94 SW7       29.65S
$$
MNZ001>005-007-008-013>017-022>024-027-028-011100-
   Northwest Minnesota

CITY           SKY/WX    TMP DP  RH WIND       PRES   REMARKS
BEMIDJI        CLOUDY    57  57  98 W7        29.65S
HALLOCK        CLOUDY    55  55 100 NW5       29.65S
ROSEAU         MOCLDY    61  55  82 W5        29.63S
WARROAD        CLOUDY    57  54  88 W6        29.63R
THIEF RVR FALL CLOUDY    57  57 100 NW9       29.67R
CROOKSTON      MOCLDY    52  52 100 CALM      29.68R
FOSSTON        CLOUDY    55  55 100 NW5       29.68R FOG
DETROIT LAKES  CLOUDY    57  55  94 NW5       29.69S
MOORHEAD       MOCLDY    55  55 100 NW5       29.70R
PARK RAPIDS    MOCLDY    57  57 100 NW5       29.66R
MAHNOMEN       CLOUDY    55  55 100 W8        29.68S FOG
$$
MNZ006-009>011-018-025>026-011100-
   North Central Minnesota

CITY           SKY/WX    TMP DP  RH WIND       PRES   REMARKS
BAUDETTE       CLOUDY    59  57  93 NW8       29.60R
FLAG ISLAND    CLOUDY    61  57  88 W14       29.59S
INTL FALLS     CLOUDY    59  58  96 W6        29.57F
WASKISH        CLOUDY    61  57  88 W10       29.63R
BIG FORK       CLOUDY    59  57  94 W3        29.63R
LONGVILLE      MOCLDY    57  57 100 W3        29.63S
GRAND RAPIDS   CLOUDY    61  57  88 NW9       29.62R
CRANE LAKE     CLOUDY    61  57  88 W3        29.58S
ORR            CLOUDY    59  55  88 W5        29.57S
COOK           CLOUDY    59  57  94 W8        29.59S
WALKER         FAIR      56  56  99 W3        29.65R
$$
MNZ012-019>021-037-011100-
   Northeast Minnesota

CITY           SKY/WX    TMP DP  RH WIND       PRES   REMARKS
DULUTH         LGT RAIN  64  62  93 W9        29.59R
ELY            LGT RAIN  61  61 100 W5        29.57S
HIBBING        CLOUDY    62  58  86 NW7       29.61R
EVELETH        DRIZZLE   63  61  94 W7        29.60R
DULUTH HARBOR  RAIN      64  63  94 W7        29.58R
TWO HARBORS    LGT RAIN  63  57  82 W3        29.55S
SILVER BAY     RAIN      61  61 100 CALM      29.53F
GRAND MARAIS     N/A     64  63  96 NW3       29.50F
G MARAIS ARPRT CLOUDY    61  59  94 W6        29.56S VSB 1/2
$$
MNZ029>031-032-039>041-046>048-054>057-064-011100-
   West Central Minnesota

CITY           SKY/WX    TMP DP  RH WIND       PRES   REMARKS
FERGUS FALLS   CLOUDY    55  55 100 NW5       29.69R
WHEATON        CLOUDY    57  55  94 W3        29.71S
MORRIS         CLOUDY    63  63 100 NW8       29.68S
ALEXANDRIA     CLOUDY    64  62  93 W7        29.69S
ELBOW LAKE     FAIR      58  58  99 NW3       29.69S FOG
WADENA         CLOUDY    59  57  94 W6        29.67R
GLENWOOD       DRIZZLE   63  63 100 W7        29.69S
APPLETON       CLOUDY    64  63  94 W5        29.68S
BENSON         RAIN      63  63 100 NW5       29.68S
ORTONVILLE     CLOUDY    64  59  82 NW6       29.69F
MADISON        CLOUDY    64  63  94 W6        29.69S
WILLMAR        FAIR      64  61  88 W5        29.69S
$$
MNZ033>034-036-042>043-049>051-058-059-011100-
   Central Minnesota

CITY           SKY/WX    TMP DP  RH WIND       PRES   REMARKS
ST CLOUD       CLOUDY    67  64  90 W9        29.63S
SAUK CENTRE    PTSUNNY   63  61  94 W5        29.67S
PAYNESVILLE    CLOUDY    62  62 100 SW5       29.67S
AITKIN         CLOUDY    64  59  82 CALM      29.61S
PINE RIVER     MOCLDY    59  59 100 CALM      29.68S
BRAINERD       MOCLDY    62  60  93 NW6       29.63S
STAPLES        MOCLDY    57  57 100 W6        29.66S
LONG PRAIRIE   CLOUDY    63  61  94 W9        29.67F
LITTLE FALLS   MOCLDY    63  61  94 W3        29.64F
LITCHFIELD     CLOUDY    66  66 100 W5        29.67S
BUFFALO        CLOUDY    64  62  91 W9        29.66S
MAPLE LAKE     RAIN      65  64  96 W8        29.65F
$$
MNZ037-044-045-052-053-011100-
   East Central Minnesota

CITY           SKY/WX    TMP DP  RH WIND       PRES   REMARKS
PRINCETON      CLOUDY    66  64  94 SW2       29.64S
MORA           RAIN      61  59  94 S3        29.65S
CAMBRIDGE      CLOUDY    66  59  77 W3        29.62S
RUSH CITY      LGT RAIN  65  63  94 SW5       29.64R
MOOSE LAKE     RAIN      63  63 100 CALM      29.58F
HINCKLEY       RAIN      63  63 100 W3        29.62S
CLOQUET        RAIN      64  63  94 W7        29.60R
MCGREGOR       CLOUDY    63  63 100 NW6       29.61F
$$
MNZ071>073-080-081-089-090-097-098-011100-
   Southwest Minnesota

CITY           SKY/WX    TMP DP  RH WIND       PRES   REMARKS
MONTEVIDEO     DRIZZLE   63  61  94 NW3       29.69F
GRANITE FALLS  CLOUDY    62  61  99 W5        29.69F
CANBY          CLOUDY    63  62  96 W6        29.71S
MARSHALL       CLOUDY    63  59  88 NW8       29.69S
REDWOOD FALLS  TSTM      64  63  96 N9        29.66F FOG
OLIVIA         CLOUDY    64  61  88 SW5       29.68S
PIPESTONE      CLOUDY    63  61  94 NW9       29.73R
WINDOM         MOCLDY    64  61  88 NW8       29.68S
WORTHINGTON    MOCLDY    63  61  94 NW8       29.71R
JACKSON        CLOUDY    64  63  94 SW3       29.69R
TRACY          CLOUDY    64  62  94 NW7       29.70R
SLAYTON        CLOUDY    62  61  98 CALM      29.72R
$$
MNZ065>067-074>077-082>085-091>093-011100-
   South Central Minnesota

CITY           SKY/WX    TMP DP  RH WIND       PRES   REMARKS
MANKATO        CLOUDY    64  61  88 SW10      29.67R
NEW ULM        RAIN      64  64 100 NW7       29.66F
ST JAMES       CLOUDY    66  64  94 CALM      29.68R
FAIRMONT       CLOUDY    64  61  88 SW6       29.67F
GLENCOE        LGT RAIN  65  63  90 SW3       29.65F
FARIBAULT      CLOUDY    66  63  88 S7        29.66S
OWATONNA       CLOUDY    66  63  88 SW7       29.66F
WASECA         CLOUDY    63  59  88 SW6       29.67F FOG
ALBERT LEA     CLOUDY    64  64 100 W5        29.66S
$$
MNZ078>079-086>088-094>096-011100-
   Southeast Minnesota

CITY           SKY/WX    TMP DP  RH WIND       PRES   REMARKS
ROCHESTER      CLOUDY    64  61  90 SW10      29.67F
RED WING       LGT RAIN  64  63  94 SW3       29.63F
STANTON        CLOUDY    66  63  89 SW8       29.63F
DODGE CENTER   DRIZZLE   64  63  94 SW10      29.66F
WINONA         CLOUDY    66  61  82 CALM      29.63F
AUSTIN         CLOUDY    64  63  94 S12       29.66F
PRESTON        CLOUDY    63  63 100 CALM      29.67F
$$
ABBREVIATIONS USED IN REMARKS
   TC - TEMPERATURES IN CELSIUS
  WCI - WIND CHILL INDEX
   HX - HEAT INDEX
  VSB - VISIBILITY
$$


USA.gov is the U.S. government's official web portal to all federal, state and local government web resources and services.